Flag for India Weather past 2 weeks in Dharamshala, Himachal Pradesh, India

Now
84 °F

Light rain. Broken clouds.


Feels Like: 98 °F
Forecast: 64 / 71 °F
Wind: 10 mph from Southeast

Location: Amritsar Airport

Current Time: Aug 1, 2015 at 1:52:01 PM

Latest Report: Aug 1, 2015 at 12:30 PM


Visibility: 2 mi

Pressure: 29.62 "Hg (25.33 "Hg at 1382m altitude)

Humidity: 89%

Dew point: 81 °F

Location of DharamshalaLocation

Historic Weather in Dharamshala — Graph

°F

Dharamshala temperature yesterday

Maximum temperature yesterday: 88 °F (at 1:00 PM)
Minimum temperature yesterday: 79 °F (at 6:00 AM)
Average temperature yesterday: 83 °F

Past Weeks' High & Low Weather Summary

 TemperatureHumidityPressure
High95 °F (Jul 23, 3:30 PM)100% (Jul 18, 12:00 AM)29.68 "Hg (Jul 18, 12:00 AM)
Low75 °F (Jul 26, 6:00 AM)59% (Jul 29, 5:30 PM)29.45 "Hg (Jul 18, 5:30 PM)
Average85 °F86%29.56 "Hg
* Reported Jul 17 1:30 PM — Aug 1 12:30 PM, Dharamshala, Weather by CustomWeather, © 2015

Note: Actual official high and low records may vary slightly from our data, if they occured in-between our weather recording intervals... More about our weather records

Advertising

Dharamshala weather history for previous 24 hours

 ConditionsComfort  
Time TempWeatherWind HumidityBarometerVisibility
12:30 PM
Sat, Aug 1
84 °FLight rain. Broken clouds.10 mph89%29.62 "Hg2 mi
12:00 PM82 °FLight rain. More clouds than sun.9 mph94%29.62 "Hg1 mi
9:30 AM81 °FFog.6 mph94%29.59 "Hg2 mi
9:00 AM81 °FFog.7 mph94%29.56 "Hg2 mi
8:30 AM81 °FFog.8 mph94%29.56 "Hg2 mi
8:00 AM81 °FFog.7 mph94%29.56 "Hg1 mi
7:30 AM81 °FFog.7 mph94%29.53 "Hg1 mi
7:00 AM81 °FFog.7 mph94%29.53 "Hg1 mi
6:30 AM81 °FFog.6 mph94%29.53 "Hg2 mi
6:00 AM81 °FFog.6 mph94%29.53 "Hg2 mi
5:30 AM81 °FFog.5 mph94%29.53 "Hg2 mi
5:00 AM81 °FFog.2 mph94%29.50 "Hg2 mi
4:30 AM81 °FFog.No wind94%29.50 "Hg2 mi
4:00 AM81 °FFog.2 mph94%29.50 "Hg2 mi
3:30 AM81 °FFog.2 mph94%29.50 "Hg2 mi
3:00 AM81 °FFog.5 mph94%29.50 "Hg2 mi
2:30 AM81 °FFog.5 mph94%29.50 "Hg2 mi
2:00 AM81 °FFog.5 mph94%29.50 "Hg2 mi
1:30 AM82 °FFog.2 mph89%29.53 "Hg2 mi
1:00 AM82 °FFog.5 mph89%29.53 "Hg2 mi
12:30 AM82 °FFog.3 mph94%29.53 "Hg2 mi
12:00 AM82 °FFog.5 mph89%29.53 "Hg2 mi
11:30 PM
Fri, Jul 31
82 °FFog.5 mph89%29.53 "Hg2 mi
11:00 PM82 °FFog.5 mph89%29.53 "Hg2 mi
10:30 PM82 °FFog.6 mph89%29.53 "Hg2 mi
10:00 PM82 °FFog.6 mph89%29.53 "Hg2 mi
8:30 PM82 °FFog.2 mph89%29.50 "Hg2 mi
8:00 PM82 °FFog.2 mph89%29.47 "Hg2 mi
7:30 PM82 °FFog.3 mph94%29.47 "Hg2 mi
7:00 PM84 °FFog.3 mph89%29.47 "Hg2 mi
5:30 PM88 °FBroken clouds.8 mph70%29.45 "Hg2 mi
1:00 PM88 °FFog.10 mph70%29.53 "Hg2 mi
Weather by CustomWeather, © 2015

See weather overviewHow to use our weather pages